Flag for United Kingdom Weather past 2 weeks in Southend-on-Sea, England, United Kingdom

Now
77 °F

Passing clouds.


Feels Like: 78 °F
Forecast: 59 / 75 °F
Wind: 7 mph from West

Location: Southend Airport-On-Sea

Current Time: Jul 30, 2014 at 6:49:35 PM

Latest Report: Jul 30, 2014 at 6:20 PM


Visibility: N/A

Pressure: 29.95 "Hg

Humidity: 42%

Dew point: 52 °F

Location of Southend-on-SeaLocation

Historic Weather in Southend-on-Sea — Graph

°F

Southend-on-Sea temperature yesterday

Maximum temperature yesterday: 79 °F (at 4:20 PM)
Minimum temperature yesterday: 59 °F (at 5:50 AM)
Average temperature yesterday: 68 °F

Past Weeks' High & Low Weather Summary

 TemperatureHumidityPressure
High88 °F (Jul 18, 3:20 PM)100% (Jul 16, 6:50 AM)30.18 "Hg (Jul 16, 6:50 AM)
Low55 °F (Jul 16, 4:50 AM)34% (Jul 29, 4:20 PM)29.71 "Hg (Jul 19, 5:50 PM)
Average69 °F72%30.00 "Hg
* Reported Jul 15 5:20 PM — Jul 30 5:20 PM, Southend-on-Sea, Weather by CustomWeather, © 2014

Note: Actual official high and low records may vary slightly from our data, if they occured in-between our weather recording intervals... More about our weather records

Advertising

Southend-on-Sea weather history for previous 24 hours

 ConditionsComfort  
Time TempWeatherWind HumidityBarometerVisibility
5:20 PM
Jul 30
77 °FPassing clouds.5 mph42%29.95 "HgN/A
4:50 PM77 °FSunny.7 mph42%29.95 "Hg10 mi
4:20 PM77 °FSunny.7 mph44%29.98 "Hg10 mi
3:50 PM73 °FSunny.7 mph47%29.98 "Hg10 mi
3:20 PM75 °FSunny.6 mph44%29.98 "Hg10 mi
2:50 PM73 °FSunny.7 mph44%29.98 "Hg10 mi
2:20 PM72 °FSunny.6 mph47%29.98 "Hg10 mi
1:50 PM73 °FPassing clouds.7 mph44%29.98 "HgN/A
1:20 PM72 °FPassing clouds.7 mph47%29.98 "HgN/A
12:50 PM70 °FPassing clouds.8 mph53%29.98 "HgN/A
12:20 PM68 °FScattered clouds.9 mph56%30.01 "HgN/A
11:50 AM70 °FScattered clouds.10 mph50%30.01 "HgN/A
11:20 AM66 °FScattered clouds.10 mph56%30.01 "HgN/A
10:50 AM68 °FPartly sunny.10 mph56%30.01 "HgN/A
10:20 AM66 °FPartly sunny.8 mph56%30.01 "HgN/A
9:50 AM66 °FScattered clouds.8 mph56%30.01 "HgN/A
9:20 AM66 °FPassing clouds.7 mph60%30.01 "HgN/A
8:50 AM64 °FPassing clouds.8 mph64%30.01 "HgN/A
8:20 AM64 °FPassing clouds.7 mph64%30.01 "HgN/A
7:50 AM61 °FPassing clouds.8 mph72%29.98 "HgN/A
7:20 AM59 °FPassing clouds.7 mph77%29.98 "HgN/A
6:50 AM59 °FSunny.8 mph77%29.98 "Hg10 mi
6:20 AM59 °FSunny.5 mph77%29.98 "Hg10 mi
5:50 AM57 °FClear.5 mph77%29.98 "Hg10 mi
5:20 AM59 °FClear.5 mph72%29.98 "Hg10 mi
4:50 AM59 °FPassing clouds.9 mph72%29.98 "HgN/A
3:50 AM63 °FPassing clouds.9 mph68%29.98 "HgN/A
2:50 AM63 °FPassing clouds.7 mph73%29.98 "HgN/A
1:50 AM63 °FPassing clouds.7 mph83%29.98 "HgN/A
12:50 AM63 °FPassing clouds.2 mph83%29.98 "HgN/A
11:50 PM
Jul 29
61 °FClear.2 mph88%29.98 "Hg10 mi
11:20 PM63 °FClear.3 mph83%29.98 "Hg10 mi
10:50 PM63 °FClear.5 mph83%29.98 "Hg10 mi
10:20 PM64 °FClear.2 mph83%29.98 "Hg10 mi
9:50 PM64 °FClear.3 mph83%29.95 "Hg10 mi
9:20 PM64 °FSunny.2 mph83%29.95 "Hg10 mi
8:50 PM66 °FSunny.3 mph78%29.95 "Hg10 mi
8:20 PM66 °FSunny.6 mph78%29.95 "Hg10 mi
7:50 PM68 °FSunny.7 mph78%29.95 "Hg10 mi
6:50 PM70 °FSunny.9 mph73%29.95 "Hg10 mi
6:20 PM72 °FSunny.8 mph69%29.95 "Hg10 mi
Weather by CustomWeather, © 2014

See weather overviewHow to use our weather pages